Location: Arbon
(43.0005°N, 0.7472°E)
Time: 12:08:14
(UTC+00:00)

ATLAS 3B R/B - Pass Details

Date: 22 April 2026
Orbit: 937 x 1257 km, 63.8° (Epoch: 16 May)

Event Time Altitude Azimuth Distance (km) Brightness Sun altitude
Rises 22:42:13 0° 324° (NW) 4,214 6.8 -32.1°
Reaches altitude 10° 22:45:28 10° 334° (NNW) 3,233 6.1 -32.3°
Maximum altitude 22:52:20 32° 35° (NE) 1,967 4.3 -32.7°
Enters shadow 22:55:40 23° 76° (ENE) 2,300 4.3 -32.9°
